Voltar ao catálogo

JAMX01

AtivoRádio AmadorSSO
NORAD 98248·PAYLOAD·🇨🇳 China
Este nome de satélite ainda não foi confirmado por fontes oficiais.

Lançado Aug 25, 2026 de Taiyuan Satellite Launch Center

Loading…

Próximas Passagens (próximas 24 horas)

TLE

AtualizadoSource: SatNOGS

Época: Sep 13, 2026, 22:35 UTC

1 98248U 26195A   26256.94162229  .00003947  00000-0  25069-3 0  9998
2 98248  97.5389 330.4124 0013166 183.3336 176.7807 15.09363115  2984

Acompanhe JAMX01 em tempo real com AllMySat

Download on the App Store